Date String (YYYY-MM-DD hh:mm:ss) UTC,Instrument flags,Ambient pressure (hPa),Sample flow (lpm),Bypass flow (lpm),Sample temperature (°C),Ambient temperature (°C),ASC tube jacket temperature (°C),LED temperature (°C),Box temperature (°C),Sample RH (%),Span deviation,Mass concentration (μg/m³),Mass concentration (μg/m³),Mass concentration (μg/m³)
DateTimeUTC,F1_M11,P_M11,Q1_M11,Q2_M11,T1_M11,T2_M11,T3_M11,T4_M11,T5_M11,U1_M11,ZSPAN_M11,X0_M11,X2_M11,X1_M11
2021-09-21 12:00:00,,0839.6,5.00,0.00,28.1,27.2,00.0,37.3,29.9,20.3,0000.0,0010.01,0004.43,0003.49
2021-09-21 12:01:00,,0839.7,4.99,0.00,28.1,27.2,00.0,37.3,29.9,20.2,0000.0,0009.18,0004.24,0003.45
2021-09-21 12:02:00,,0839.7,5.01,0.00,28.1,27.2,00.0,37.3,29.9,20.1,0000.0,0009.19,0004.11,0003.40
2021-09-21 12:03:00,,0839.7,5.00,0.00,28.1,27.2,00.0,37.3,29.9,20.2,0000.0,0008.57,0004.02,0003.36
2021-09-21 12:04:00,,0839.7,4.99,0.00,28.1,27.2,00.0,37.3,29.9,20.3,0000.0,0007.99,0003.94,0003.34
2021-09-21 12:05:00,,0839.7,5.00,0.00,28.1,27.2,00.0,37.3,29.9,20.3,0000.0,0007.93,0003.90,0003.33
2021-09-21 12:06:00,,0839.7,5.02,0.00,28.1,27.1,00.0,37.3,29.9,20.2,0000.0,0007.81,0003.85,0003.32
2021-09-21 12:07:00,,0839.7,4.99,0.00,28.1,27.1,00.0,37.3,29.9,20.2,0000.0,0008.00,0003.81,0003.30
2021-09-21 12:08:00,,0839.7,5.01,0.00,28.1,27.1,00.0,37.3,29.9,20.1,0000.0,0008.18,0003.82,0003.30
2021-09-21 12:09:00,,0839.8,4.98,0.00,28.1,27.1,00.0,37.3,29.8,20.1,0000.0,0008.59,0003.82,0003.30
2021-09-21 12:10:00,,0839.9,5.01,0.00,28.1,27.1,00.0,37.3,29.9,20.1,0000.0,0009.04,0003.84,0003.30
2021-09-21 12:11:00,,0839.8,4.99,0.00,28.1,27.1,00.0,37.3,29.9,20.1,0000.0,0009.17,0003.87,0003.31
2021-09-21 12:12:00,,0839.8,5.01,0.00,28.1,27.1,00.0,37.3,29.9,20.1,0000.0,0009.50,0003.97,0003.34
2021-09-21 12:13:00,,0839.8,5.01,0.00,28.1,27.1,00.0,37.3,29.8,20.2,0000.0,0009.93,0004.03,0003.38
2021-09-21 12:14:00,,0839.8,4.99,0.00,28.1,27.1,00.0,37.3,29.8,20.2,0000.0,0010.95,0004.08,0003.39
2021-09-21 12:15:00,,0839.9,5.02,0.00,28.1,27.1,00.0,37.2,29.8,20.2,0000.0,0011.06,0004.08,0003.38
2021-09-21 12:16:00,,0839.8,5.00,0.00,28.1,27.1,00.0,37.2,29.8,20.1,0000.0,0011.16,0004.10,0003.36
2021-09-21 12:17:00,,0839.8,5.00,0.00,28.1,27.1,00.0,37.2,29.8,20.1,0000.0,0011.64,0004.05,0003.34
2021-09-21 12:18:00,,0839.8,5.01,0.00,28.0,27.1,00.0,37.2,29.8,20.1,0000.0,0011.71,0004.03,0003.32
2021-09-21 12:19:00,,0839.8,4.99,0.00,28.0,27.1,00.0,37.2,29.8,20.0,0000.0,0011.33,0003.99,0003.30
2021-09-21 12:20:00,,0839.9,5.00,0.00,28.0,27.1,00.0,37.2,29.8,20.0,0000.0,0010.90,0003.94,0003.28
2021-09-21 12:21:00,,0839.9,5.01,0.00,28.0,27.1,00.0,37.2,29.8,20.0,0000.0,0010.59,0003.88,0003.26
2021-09-21 12:22:00,,0839.9,5.01,0.00,28.0,27.1,00.0,37.2,29.8,20.0,0000.0,0010.34,0003.82,0003.24
2021-09-21 12:23:00,,0839.9,5.00,0.00,28.0,27.1,00.0,37.2,29.8,19.9,0000.0,0010.07,0003.76,0003.22
2021-09-21 12:24:00,,0839.9,5.00,0.00,28.0,27.1,00.0,37.2,29.8,19.9,0000.0,0009.81,0003.73,0003.21
2021-09-21 12:25:00,,0839.9,5.00,0.00,28.0,27.1,00.0,37.2,29.8,19.9,0000.0,0008.67,0003.71,0003.20
2021-09-21 12:26:00,,0839.9,5.01,0.00,28.0,27.1,00.0,37.2,29.8,19.9,0000.0,0008.86,0003.69,0003.19
2021-09-21 12:27:00,,0839.9,4.99,0.00,28.0,27.0,00.0,37.2,29.8,19.9,0000.0,0008.98,0003.64,0003.17
2021-09-21 12:28:00,,0839.9,5.01,0.00,28.0,27.0,00.0,37.2,29.8,19.9,0000.0,0008.61,0003.63,0003.16
2021-09-21 12:29:00,,0840.0,5.00,0.00,28.0,27.1,00.0,37.2,29.8,19.9,0000.0,0008.42,0003.65,0003.16
2021-09-21 12:30:00,,0840.0,4.99,0.00,28.0,27.1,00.0,37.2,29.8,19.9,0000.0,0008.34,0003.61,0003.14
2021-09-21 12:31:00,,0840.0,5.01,0.00,28.0,27.0,00.0,37.2,29.8,19.7,0000.0,0008.14,0003.57,0003.11
2021-09-21 12:32:00,,0840.0,5.01,0.00,28.0,27.0,00.0,37.2,29.8,19.6,0000.0,0007.80,0003.51,0003.04
2021-09-21 12:33:00,,0840.0,4.99,0.00,28.0,27.0,00.0,37.2,29.8,19.5,0000.0,0008.35,0003.46,0002.97
2021-09-21 12:34:00,,0840.1,5.00,0.00,28.0,27.0,00.0,37.2,29.8,19.5,0000.0,0008.50,0003.40,0002.90
2021-09-21 12:35:00,,0840.1,5.00,0.00,28.0,27.0,00.0,37.2,29.8,19.4,0000.0,0007.99,0003.33,0002.83
2021-09-21 12:36:00,,0840.1,5.00,0.00,28.0,27.0,00.0,37.2,29.8,19.3,0000.0,0008.00,0003.30,0002.75
2021-09-21 12:37:00,,0840.1,4.99,0.00,28.0,27.0,00.0,37.2,29.7,19.3,0000.0,0007.51,0003.24,0002.68
2021-09-21 12:38:00,,0840.1,5.01,0.00,28.0,27.0,00.0,37.2,29.7,19.3,0000.0,0007.14,0003.20,0002.63
2021-09-21 12:39:00,,0840.1,5.01,0.00,28.0,27.0,00.0,37.2,29.7,19.2,0000.0,0006.53,0003.13,0002.56
2021-09-21 12:40:00,,0840.1,4.99,0.00,28.0,27.0,00.0,37.2,29.7,19.0,0000.0,0006.85,0002.97,0002.46
2021-09-21 12:41:00,,0840.2,5.01,0.00,28.0,27.0,00.0,37.2,29.7,19.0,0000.0,0006.75,0002.85,0002.37
2021-09-21 12:42:00,,0840.2,5.00,0.00,28.0,26.9,00.0,37.2,29.7,18.8,0000.0,0006.54,0002.74,0002.28
2021-09-21 12:43:00,,0840.2,4.99,0.00,27.9,26.9,00.0,37.2,29.7,18.7,0000.0,0006.45,0002.68,0002.22
2021-09-21 12:44:00,,0840.2,5.01,0.00,27.9,26.9,00.0,37.1,29.7,18.5,0000.0,0005.82,0002.64,0002.16
2021-09-21 12:45:00,,0840.2,4.99,0.00,27.9,26.9,00.0,37.1,29.7,18.3,0000.0,0006.05,0002.53,0002.09
2021-09-21 12:46:00,,0840.2,5.00,0.00,27.9,26.9,00.0,37.1,29.7,18.0,0000.0,0005.99,0002.44,0002.02
2021-09-21 12:47:00,,0840.2,5.00,0.00,27.9,26.9,00.0,37.1,29.7,17.9,0000.0,0005.67,0002.29,0001.95
2021-09-21 12:48:00,,0840.2,5.01,0.00,27.9,26.9,00.0,37.1,29.7,17.7,0000.0,0005.47,0002.19,0001.88
2021-09-21 12:49:00,,0840.2,5.00,0.00,27.9,26.9,00.0,37.1,29.7,17.7,0000.0,0005.30,0002.09,0001.80
2021-09-21 12:50:00,,0840.2,4.99,0.00,27.9,26.9,00.0,37.1,29.6,17.7,0000.0,0005.11,0002.02,0001.75
2021-09-21 12:51:00,,0840.1,5.00,0.00,27.9,26.9,00.0,37.1,29.6,17.6,0000.0,0004.29,0001.95,0001.70
2021-09-21 12:52:00,,0840.2,5.01,0.00,27.9,26.9,00.0,37.1,29.6,17.6,0000.0,0004.01,0001.88,0001.67
2021-09-21 12:53:00,,0840.2,5.00,0.00,27.9,26.9,00.0,37.1,29.6,17.3,0000.0,0003.87,0001.82,0001.63
2021-09-21 12:54:00,,0840.2,5.00,0.00,27.8,26.8,00.0,37.0,29.6,17.2,0000.0,0003.86,0001.76,0001.59
2021-09-21 12:55:00,,0840.3,5.00,0.00,27.8,26.8,00.0,37.0,29.6,17.2,0000.0,0003.50,0001.69,0001.56
2021-09-21 12:56:00,,0840.4,5.01,0.00,27.8,26.8,00.0,37.0,29.6,17.3,0000.0,0002.35,0001.68,0001.54
2021-09-21 12:57:00,,0840.4,5.00,0.00,27.8,26.8,00.0,37.0,29.6,17.3,0000.0,0002.36,0001.71,0001.52
2021-09-21 12:58:00,,0840.4,4.99,0.00,27.8,26.8,00.0,37.0,29.5,17.4,0000.0,0002.39,0001.72,0001.52
2021-09-21 12:59:00,,0840.3,5.00,0.00,27.8,26.8,00.0,37.0,29.5,17.6,0000.0,0002.44,0001.75,0001.52
